KC0VVH Weather Reports


time (UTC)temp
F
wind
direction
speed
knots
gust
knots
rain 1hr
in
rain 24hr
in
rain mn
in
humidity
%
barometer
mb
20260901192712 78 33 0.0 3.5 0.00 0.00 0.00 45 1016.5
20260901191833 78 34 0.9 4.3 0.00 0.00 0.00 45 1016.5
20260901190912 77 24 1.7 7.0 0.00 0.00 0.00 46 1016.5
20260901190012 77 17 0.0 3.5 0.00 0.00 0.00 45 1016.5
20260901185412 77 16 0.9 4.3 0.00 0.00 0.00 46 1016.5
20260901184533 78 15 1.7 4.3 0.00 0.00 0.00 46 1016.5
20260901183612 78 24 3.5 7.8 0.00 0.00 0.00 49 1016.5
20260901182733 77 38 2.6 5.2 0.00 0.00 0.00 50 1016.5
20260901181812 76 31 1.7 5.2 0.00 0.00 0.00 52 1016.5
20260901180912 75 33 1.7 5.2 0.00 0.00 0.00 55 1016.5
20260901180012 75 36 0.9 4.3 0.00 0.00 0.00 55 1016.5
20260901175433 75 36 0.9 5.2 0.00 0.00 0.00 58 1016.5
20260901174512 74 36 0.0 3.5 0.00 0.00 0.00 57 1016.5
20260901173633 73 36 0.9 5.2 0.00 0.00 0.00 58 1016.5
20260901172712 72 38 1.7 4.3 0.00 0.00 0.00 61 1016.5
20260901171812 72 38 0.9 4.3 0.00 0.00 0.00 62 1016.5
20260901170912 72 38 0.9 5.2 0.00 0.00 0.00 61 1016.5
20260901170012 72 40 0.0 3.5 0.00 0.00 0.00 60 1016.5
20260901165412 72 41 0.0 3.5 0.00 0.00 0.00 60 1016.5
20260901164512 72 41 0.9 4.3 0.00 0.00 0.00 64 1016.5
20260901163612 70 41 0.0 2.6 0.00 0.00 0.00 68 1016.5
20260901162712 69 42 0.9 3.5 0.00 0.00 0.00 68 1016.5
20260901161812 70 44 0.0 0.9 0.00 0.00 0.00 66 1016.5
20260901160912 70 0 0.0 0.0 0.00 0.00 0.00 67 1016.5
20260901160012 70 0 0.0 0.0 0.00 0.00 0.00 68 1016.5
20260901155412 71 0 0.0 0.0 0.00 0.00 0.00 67 1016.5
20260901154512 70 0 0.0 0.0 0.00 0.00 0.00 72 1016.5
20260901153633 68 0 0.0 0.9 0.00 0.00 0.00 72 1016.5
20260901152712 68 0 0.0 0.0 0.00 0.00 0.00 74 1016.5
20260901151812 67 0 0.0 0.0 0.00 0.00 0.00 77 1016.5
20260901150933 66 0 0.0 0.0 0.00 0.00 0.00 77 1016.5
20260901150012 67 0 0.0 0.0 0.00 0.00 0.00 75 1016.5
20260901145412 67 0 0.0 0.0 0.00 0.00 0.00 76 1016.5
20260901144512 67 0 0.0 0.0 0.00 0.00 0.00 76 1016.5
20260901143612 65 0 0.0 0.0 0.00 0.00 0.00 79 1016.5
20260901142712 64 0 0.0 0.0 0.00 0.00 0.00 82 1016.5
20260901141833 63 0 0.0 0.0 0.00 0.00 0.00 86 1016.5
20260901140912 61 0 0.0 0.0 0.00 0.00 0.00 89 1016.5
20260901140012 60 0 0.0 0.0 0.00 0.00 0.00 89 1016.5
20260901135412 60 0 0.0 0.0 0.00 0.00 0.00 89 1016.5
20260901134512 60 0 0.0 0.0 0.00 0.00 0.00 90 1016.5
20260901133612 59 0 0.0 0.0 0.00 0.00 0.00 92 1016.5
20260901132712 58 0 0.0 0.0 0.00 0.00 0.00 93 1016.5
20260901131812 58 0 0.0 0.0 0.00 0.00 0.00 93 1016.5
20260901130912 58 0 0.0 0.0 0.00 0.00 0.00 93 1016.5
20260901130012 58 0 0.0 0.0 0.00 0.00 0.00 93 1016.5
20260901125412 57 0 0.0 0.0 0.00 0.00 0.00 93 1016.5
20260901124533 57 0 0.0 0.0 0.00 0.00 0.00 93 1016.5
20260901123612 57 0 0.0 0.0 0.00 0.00 0.00 93 1016.5
20260901122712 57 0 0.0 0.0 0.00 0.00 0.00 93 1016.5
20260901121812 57 0 0.0 0.0 0.00 0.00 0.00 93 1016.5
20260901120912 57 0 0.0 0.0 0.00 0.00 0.00 92 1016.5
20260901120012 57 0 0.0 0.0 0.00 0.00 0.00 92 1016.5
20260901115412 57 0 0.0 0.0 0.00 0.00 0.00 92 1016.5
20260901114512 57 0 0.0 0.0 0.00 0.00 0.00 92 1016.5
20260901113633 57 0 0.0 0.0 0.00 0.00 0.00 92 1016.5
20260901112712 57 0 0.0 0.0 0.00 0.00 0.00 92 1016.5
20260901111812 58 0 0.0 0.0 0.00 0.00 0.00 91 1016.5
20260901110912 58 0 0.0 0.0 0.00 0.00 0.00 91 1016.5
20260901110033 58 0 0.0 0.0 0.00 0.00 0.00 91 1016.5
20260901105412 58 0 0.0 0.0 0.00 0.00 0.00 90 1016.5
20260901104534 58 0 0.0 0.0 0.00 0.00 0.00 90 1016.5
20260901103612 58 0 0.0 0.0 0.00 0.00 0.00 90 1016.5
20260901102712 58 0 0.0 0.0 0.00 0.00 0.00 89 1016.5
20260901101812 59 0 0.0 0.0 0.00 0.00 0.00 89 1016.5
20260901100933 59 0 0.0 0.0 0.00 0.00 0.00 89 1016.5
20260901100012 59 0 0.0 0.0 0.00 0.00 0.00 89 1016.5
20260901095412 59 0 0.0 0.0 0.00 0.00 0.00 89 1016.5
20260901094512 59 0 0.0 0.0 0.00 0.00 0.00 90 1016.5
20260901093612 59 0 0.0 0.0 0.00 0.00 0.00 90 1016.5
20260901092712 59 0 0.0 0.0 0.00 0.00 0.00 89 1016.5
20260901091812 59 0 0.0 0.0 0.00 0.00 0.00 88 1016.5
20260901090912 60 0 0.0 0.0 0.00 0.00 0.00 88 1016.5
20260901090012 60 0 0.0 0.0 0.00 0.00 0.00 86 1016.5
20260901085412 60 0 0.0 0.0 0.00 0.00 0.00 87 1016.5
20260901084513 61 0 0.0 0.0 0.00 0.00 0.00 87 1016.5
20260901083612 61 0 0.0 0.0 0.00 0.00 0.00 87 1016.5
20260901082713 61 0 0.0 0.0 0.00 0.00 0.00 87 1016.5
20260901081812 61 0 0.0 0.0 0.00 0.00 0.00 87 1016.5
20260901080933 60 0 0.0 0.0 0.00 0.00 0.00 87 1016.5
20260901080013 60 0 0.0 0.0 0.00 0.00 0.00 87 1016.5
20260901075412 60 0 0.0 0.0 0.00 0.00 0.00 86 1016.5
20260901074512 60 0 0.0 0.0 0.00 0.00 0.00 86 1016.5
20260901073613 60 0 0.0 0.0 0.00 0.00 0.00 86 1016.5
20260901072733 61 0 0.0 0.0 0.00 0.00 0.00 85 1016.5
20260901071812 61 0 0.0 0.0 0.00 0.00 0.00 84 1016.5
20260901070934 61 0 0.0 0.0 0.00 0.00 0.00 83 1016.5
20260901070013 62 0 0.0 0.0 0.00 0.00 0.00 82 1016.5
20260901065412 62 0 0.0 0.0 0.00 0.00 0.00 81 1016.5
20260901064512 62 0 0.0 0.0 0.00 0.00 0.00 80 1016.5
20260901063612 63 0 0.0 0.0 0.00 0.00 0.00 80 1016.5
20260901062712 63 0 0.0 0.0 0.00 0.00 0.00 79 1016.5
20260901061812 63 0 0.0 0.0 0.00 0.00 0.00 79 1016.5
20260901060912 62 0 0.0 0.0 0.00 0.00 0.00 81 1016.5
20260901060012 62 0 0.0 0.0 0.00 0.00 0.00 81 1016.5
20260901055434 62 0 0.0 0.0 0.00 0.00 0.00 80 1016.5
20260901054512 62 0 0.0 0.0 0.00 0.00 0.00 81 1016.5
20260901053612 62 0 0.0 0.0 0.00 0.00 0.00 81 1016.5
20260901052713 62 0 0.0 0.0 0.00 0.00 0.00 81 1016.5
20260901051812 63 0 0.0 0.0 0.00 0.00 0.00 80 1016.5
20260901050912 63 0 0.0 0.0 0.00 0.00 0.00 80 1016.5
20260901050012 63 0 0.0 0.0 0.00 0.00 0.00 80 1016.5
20260901045412 63 0 0.0 0.0 0.00 0.00 0.00 79 1016.5
20260901044512 64 0 0.0 0.0 0.00 0.00 0.00 79 1016.5
20260901043612 64 0 0.0 0.0 0.00 0.00 0.00 78 1016.5
20260901042712 65 0 0.0 0.0 0.00 0.00 0.00 78 1016.5
20260901041812 65 0 0.0 0.0 0.00 0.00 0.00 77 1016.5
20260901040933 66 0 0.0 0.0 0.00 0.00 0.00 76 1016.5
20260901040012 66 0 0.0 0.0 0.00 0.00 0.00 75 1016.5
20260901035412 66 0 0.0 0.0 0.00 0.00 0.00 75 1016.5
20260901034512 67 0 0.0 0.0 0.00 0.00 0.00 75 1016.5
20260901033613 67 0 0.0 0.0 0.00 0.00 0.00 69 1016.5
20260901032713 67 0 0.0 0.0 0.00 0.00 0.00 71 1016.5
20260901031812 67 0 0.0 0.0 0.00 0.00 0.00 69 1016.5
20260901030912 67 0 0.0 0.0 0.00 0.00 0.00 70 1016.5
20260901030012 68 0 0.0 0.0 0.00 0.00 0.00 67 1016.5
20260901025412 67 0 0.0 0.0 0.00 0.00 0.00 66 1016.5
20260901024533 67 0 0.0 0.0 0.00 0.00 0.00 67 1016.5
20260901023634 68 0 0.0 0.0 0.00 0.00 0.00 66 1016.5
20260901022712 68 0 0.0 0.0 0.00 0.00 0.00 66 1016.5
20260901021812 68 0 0.0 0.0 0.00 0.00 0.00 66 1016.5
20260901020912 68 0 0.0 0.0 0.00 0.00 0.00 66 1016.5
20260901020012 68 0 0.0 0.0 0.00 0.00 0.00 65 1016.5
20260901015412 68 0 0.0 0.0 0.00 0.00 0.00 65 1016.5
20260901014513 68 0 0.0 0.0 0.00 0.00 0.00 64 1016.5
20260901013613 68 0 0.0 0.0 0.00 0.00 0.00 64 1016.5
20260901012712 69 0 0.0 0.0 0.00 0.00 0.00 63 1016.5
20260901011813 69 0 0.0 0.0 0.00 0.00 0.00 62 1016.5
20260901010913 69 0 0.0 0.0 0.00 0.00 0.00 63 1016.5
20260901010013 69 0 0.0 0.0 0.00 0.00 0.00 62 1016.5
20260901005434 70 0 0.0 0.0 0.00 0.00 0.00 61 1016.5
20260901004513 70 0 0.0 0.0 0.00 0.00 0.00 59 1016.5
20260901003612 70 0 0.0 0.0 0.00 0.01 0.00 60 1016.5
20260901002712 70 0 0.0 0.0 0.00 0.01 0.00 60 1016.5
20260901001812 70 0 0.0 0.0 0.00 0.02 0.00 60 1016.5
20260901000913 70 0 0.0 0.0 0.00 0.05 0.00 61 1016.5
20260901000012 70 0 0.0 0.0 0.00 0.10 0.00 60 1016.5
20260831235412 70 0 0.0 0.0 0.00 0.13 0.00 60 1016.5
20260831234512 70 0 0.0 0.0 0.00 0.18 0.00 60 1016.5
20260831233613 70 0 0.0 0.0 0.00 0.20 0.00 60 1016.5
20260831232712 70 0 0.0 0.0 0.00 0.20 0.00 60 1016.5
20260831231812 70 0 0.0 0.9 0.00 0.20 0.00 60 1016.5
20260831230912 70 0 0.0 0.9 0.00 0.20 0.00 60 1016.5
20260831230013 70 37 0.0 2.6 0.00 0.20 0.00 60 1016.5
20260831225412 70 0 0.0 0.0 0.00 0.20 0.00 60 1016.5
20260831224513 70 38 0.0 3.5 0.00 0.20 0.00 59 1016.5
20260831223613 70 42 0.0 3.5 0.00 0.20 0.00 60 1016.5
20260831222712 70 31 0.0 7.0 0.00 0.20 0.00 59 1016.5
20260831221813 71 20 0.0 7.0 0.00 0.20 0.00 59 1016.5
20260831220913 71 15 0.0 4.3 0.00 0.20 0.00 59 1016.5
20260831220034 71 12 0.9 6.1 0.00 0.20 0.00 59 1016.5
20260831215413 71 20 0.9 6.1 0.00 0.20 0.00 59 1016.5
20260831214534 71 36 0.9 6.1 0.00 0.20 0.00 57 1016.5
20260831213634 72 4 0.9 6.1 0.00 0.20 0.00 56 1016.5
20260831212712 72 9 0.9 6.1 0.00 0.20 0.00 56 1016.5
20260831211812 73 9 0.9 4.3 0.00 0.20 0.00 54 1016.5
20260831210913 73 1 0.9 7.0 0.00 0.20 0.00 54 1016.5
20260831210013 73 3 0.9 7.8 0.00 0.20 0.00 53 1016.5
20260831205413 73 341 0.9 7.0 0.00 0.20 0.00 55 1016.5
20260831204533 73 305 0.9 8.7 0.00 0.20 0.00 53 1016.5
20260831203612 74 359 2.6 9.6 0.00 0.20 0.00 54 1016.5
20260831202713 74 344 0.9 7.8 0.00 0.20 0.00 53 1016.5
20260831201834 74 334 1.7 8.7 0.00 0.20 0.00 53 1016.5
20260831200934 74 335 2.6 8.7 0.00 0.20 0.00 54 1016.5
20260831200034 74 351 2.6 13.9 0.00 0.20 0.00 54 1016.5
20260831195413 73 354 2.6 13.9 0.00 0.20 0.00 55 1016.5
20260831194513 73 17 2.6 8.7 0.00 0.20 0.00 60 1016.5
20260831193613 72 23 1.7 8.7 0.00 0.20 0.00 61 1016.5